• Join FlightAware (Why Join?)
  • Login
  • US Flag 
01:39AM EST


 

Airport Tracker/Info


-or-


 

Live Flight TrackerFlight Track Log ✈ SKW6206 ✈ 30-Apr-2012 ✈ KIND - KORD

Flight Track Log - Related Links

Times and Time Zones

All times are in EDT time to prevent confusion due to time zone crossing. See the SKW6206 flight status page for this flight to view local times or setup timezone preferences in your user account.

Time Position Orientation Groundspeed Altitude Reporting Facility
EDT Latitude Longitude Course Direction KTS MPH feet Rate Location/Type
11:29AM 39.7367 -86.3078 199° South  Level FlightAware Approximate
11:30AM 39.7167 -86.3167 255° West 151 174 1,300  Level Indianapolis TRACON
11:31AM 39.7000 -86.4000 North 229 264 4,600 2,214 Climbing Indianapolis TRACON
11:32AM 39.7833 -86.3833 21° North 302 348 7,500 2,684 Climbing Indianapolis TRACON
11:33AM 39.8500 -86.3500 30° Northeast 313 360 9,700 2,438 Climbing Indianapolis TRACON
11:34AM 39.9167 -86.3000 33° Northeast 328 377 11,400 1,571 Climbing Indianapolis TRACON
11:35AM 40.0167 -86.2167 23° Northeast 355 409 13,000 923 Climbing Indianapolis TRACON
11:36AM 40.0553 -86.1953 32° Northeast 350 403 13,000 391 Level Chicago Center
11:37AM 40.1389 -86.1261 42° Northeast 377 434 13,600 1,400 Climbing Chicago Center
11:38AM 40.2194 -86.0297 44° Northeast 366 421 15,800 2,200 Climbing Chicago Center
11:39AM 40.2978 -85.9306 44° Northeast 368 423 18,000 2,050 Climbing Chicago Center
11:40AM 40.3761 -85.8311 43° Northeast 380 437 19,900 1,000 Climbing Chicago Center
11:41AM 40.4644 -85.7228 North 406 467 20,000 50 Climbing Chicago Center
11:42AM 40.5725 -85.7086 343° North 417 480 20,000  Level Chicago Center
11:43AM 40.6717 -85.7497 339° North 400 460 20,000  Level Chicago Center
11:44AM 40.7714 -85.7992 341° North 386 444 20,000  Level Chicago Center
11:45AM 40.8686 -85.8433 327° Northwest 376 433 20,000  Level Chicago Center
11:46AM 40.9542 -85.9158 311° West 366 421 20,000  Level Chicago Center
11:47AM 41.0175 -86.0117 312° West 358 412 20,000  Level Chicago Center
11:48AM 41.0850 -86.1100 311° West 358 412 20,000  Level Chicago Center
11:49AM 41.1417 -86.1956 310° West 346 398 20,000  Level Chicago Center
11:50AM 41.2069 -86.2972 313° West 355 409 20,000  Level Chicago Center
11:51AM 41.2783 -86.3989 314° West 350 403 20,000 -1,050 Level Chicago Center
11:52AM 41.3475 -86.4953 313° West 350 403 17,900 -2,000 Descending Chicago Center
11:55AM 41.5397 -86.7725 350° North 343 395 12,000 -1,475 Descending Chicago Center
11:56AM 41.6383 -86.7964 356° North 347 399 12,000  Level Chicago Center
11:57AM 41.7364 -86.8064 351° North 360 414 12,000  Level Chicago Center
11:58AM 41.8369 -86.8275 330° Northwest 360 414 12,000 -300 Level Chicago Center
11:59AM 41.9197 -86.8914 319° Northwest 344 396 11,400 -750 Descending Chicago Center
12:00PM 41.9817 -86.9644 274° West 325 374 10,500 -700 Descending Chicago Center
12:01PM 41.9856 -87.0481 270° West 259 298 10,000 -744 Descending Chicago Center
12:02PM 41.9850 -87.1319 267° West 241 277 9,000 -1,000 Descending Chicago Center
12:03PM 41.9825 -87.2075 269° West 223 257 8,000 -908 Descending Chicago Center
12:04PM 41.9817 -87.2828 271° West 210 242 7,200 -370 Descending Chicago Center
12:05PM 41.9833 -87.3833 270° West 164 189 7,000 -77 Descending Chicago TRACON
12:06PM 41.9833 -87.4333 270° West 168 193 7,000 -261 Level Chicago TRACON
12:07PM 41.9833 -87.5167 270° West 173 199 6,500 -843 Descending Chicago TRACON
12:08PM 41.9833 -87.5667 270° West 169 194 5,300 -1,050 Descending Chicago TRACON
12:09PM 41.9833 -87.6333 270° West 171 197 4,400 -895 Descending Chicago TRACON
12:10PM 41.9833 -87.6833 270° West 167 192 3,600 -900 Descending Chicago TRACON
12:11PM 41.9833 -87.7500 270° West 161 185 2,600 -857 Descending Chicago TRACON
12:12PM 41.9833 -87.8167 270° West 135 155 1,800 -800 Descending Chicago TRACON